Regional Weather Roundup
Issued by NWS Northern Indiana

Home | Current Version | Previous Version | Graphics & Text | Print | Product List | Glossary On
Versions: 1 2 3 4 5 6 7 8 9 10 11 12 13 14 15 16 17 18 19 20 21 22 23 24 25 26 27 28 29 30 31 32 33 34 35 36 37 38 39 40 41 42 43 44 45 46 47 48 49 50
000
ASUS43 KIWX 212110
RWRIWX

KIWX WEATHER ROUNDUP
NATIONAL WEATHER SERVICE NORTHERN INDIANA
400 PM EST SUN DEC 21 2014

NOTE: "FAIR" INDICATES FEW OR NO CLOUDS BELOW 12,000 FEET WITH NO
SIGNIFICANT WEATHER AND/OR OBSTRUCTIONS TO VISIBILITY.

* THESE STATIONS ARE NOT UNDER NWS QUALITY CONTROL. THEY ALSO MAY NOT
  REPORT WEATHER SUCH AS PRECIPITATION OR FOG.

INZ001>027-212200-
NORTHERN INDIANA

CITY           SKY/WX    TMP DP  RH WIND       PRES   REMARKS
GARY*          CLOUDY    37  25  60 S9        30.12F
VALPARAISO     CLOUDY    36  28  73 SE6       30.13F
MICHIGAN CITY* CLOUDY    36  25  64 S3        30.13F
LAPORTE*       PTSUNNY   38  30  73 S5        30.13F
KNOX*          MOSUNNY   38  25  61 S12       30.13F
SOUTH BEND     PTSUNNY   38  28  67 S15       30.14
GOSHEN         MOSUNNY   36  27  69 SE12      30.15F
MONTICELLO*    MOSUNNY   38  30  72 S7        30.14S
LOGANSPORT*    MOSUNNY   36  28  75 SE9       30.15F
ROCHESTER*     MOSUNNY   37  30  75 SE7       30.15F
WARSAW*        MOSUNNY   36  27  69 SE5       30.15F
ANGOLA*        CLOUDY    34  25  69 S7        30.16F WCI  28
FORT WAYNE     MOSUNNY   35  26  69 SE8       30.18F WCI  29
HUNTINGTON*    MOSUNNY   36  27  72 SE8       30.16F
PERU/GRISSOM   SUNNY     37  33  86 SE12      30.15F
MARION*        SUNNY     36  28  72 SE8       30.16F

$$
INZ028>050-212200-
CENTRAL INDIANA

CITY           SKY/WX    TMP DP  RH WIND       PRES   REMARKS
LAFAYETTE      MOSUNNY   37  29  72 SE9       30.13F
KOKOMO*        SUNNY     36  28  75 S10       30.15F
MUNCIE*        MOSUNNY   36  27  69 SE9       30.16F
INDIANAPOLIS   PTSUNNY   35  27  72 SE8       30.14F WCI  29

$$
MIZ043>046-050>051-056>058-064>065-071>073-077>080-212200-
SOUTHWEST LOWER MICHIGAN

CITY           SKY/WX    TMP DP  RH WIND       PRES   REMARKS
BATTLE CREEK   CLOUDY    35  24  64 S10       30.17S WCI  27
BENTON HARBOR  CLOUDY    35  28  75 SE10      30.14S WCI  27
COLDWATER*     CLOUDY    33  25  72 MISG      30.17F
HILLSDALE*     CLOUDY    33  27  79 SE6       30.17S WCI  27
HOLLAND        CLOUDY    36  28  73 SE9       30.15S
GRAND RAPIDS   MOCLDY    34  26  72 S9        30.16S WCI  27
KALAMAZOO      PTCLDY    35  25  66 S7        30.16F WCI  29
STURGIS*       MOSUNNY   34  27  75 S9        30.16S WCI  26
THREE RIVERS*  FAIR      35  26  70 S7        30.16F WCI  29

$$
OHZ001>008-015>018-024>025-212200-
NORTHWEST OHIO

CITY           SKY/WX    TMP DP  RH WIND       PRES   REMARKS
WAUSEON*       CLOUDY    34  27  75 S6        30.21S WCI  29
DEFIANCE       CLOUDY    35  25  66 S5        30.22S WCI  31
FINDLAY        PTCLDY    35  25  66 SE6       30.20F WCI  30
TOLEDO EXPRESS CLOUDY    33  25  72 S3        30.22S
TOLEDO METCALF MOCLDY    35  25  66 CALM      30.23F
LIMA           MOSUNNY   38  24  57 SE6       30.19S

$$
AND FOR LAKE MICHIGAN COASTAL AND OPEN LAKE BUOY OBSERVATIONS

STATION/POSITION TEMP    WIND        PRES    VSBY  WAVE
                 AIR SEA DIR/SP/G                  HT/PER
                 (F)     (DEG/KT/KT) (MB)    (MI)  (FT/S)
CALUMET HARBOR    36     150/ 10/ 14 1018.3S
SAINT JOSEPH      37     160/  2/  6 1020.7F
MICHIGAN CITY CG     37                N/A       6   1

$$
&&


USA.gov is the U.S. government's official web portal to all federal, state and local government web resources and services.